Christmas Island, Australian Islands

2:13 PM CXT on August 25, 2016 (GMT +0700)
Christmas Island

Weather History for YPXM - February, 2014

Change the Weather History Date:

Sunday, February 23, 2014

  Actual Average Record
Temperature  
Mean Temperature 78 °F -  
Max Temperature 83 °F 79 °F 84 °F (2015)
Min Temperature 73 °F 71 °F 68 °F (2001)
Cooling Degree Days 13    
Growing Degree Days 28 (Base 50)    
Moisture  
Dew Point 72 °F    
Average Humidity 86    
Maximum Humidity 100    
Minimum Humidity 66    
Precipitation  
Precipitation 0.02 in - - ()
Sea Level Pressure  
Sea Level Pressure 29.88 in    
Wind  
Wind Speed 6 mph ()    
Max Wind Speed 15 mph    
Max Gust Speed -    
Visibility 6.2 miles    
Events      
Averages and records for this station are not official NWS values.
T = Trace of Precipitation, MM = Missing Value Source: Averaged Metar Reports

Daily Weather History Graph

Daily Weather History Graph

Search for Another Location

Airport or City:

Trip Planner

Search our weather history database for the weather conditions in past years. The results will help you decide how hot, cold, wet, or windy it might be!

Date:

Astronomy

Feb. 23, 2014 Rise Set
Actual Time 5:59 AM CXT 6:21 PM CXT
Civil Twilight 5:38 AM CXT 6:42 PM CXT
Nautical Twilight 5:13 AM CXT 7:07 PM CXT
Astronomical Twilight 4:48 AM CXT 7:32 PM CXT
Moon No Moon Rise 12:39 PM CXT (2/23)
Length of Visible Light 13h 04m
Length of Day
12h 21m
Last Quarter, 44% of the Moon is Illuminated
Feb 23
Last Quarter
Mar 1
New
Mar 8
First Quarter
Mar 17
Full
Mar 24
Last Quarter

Hourly Weather History & Observations

Time (CXT) Temp. Heat Index Dew Point Humidity Pressure Visibility Wind Dir Wind Speed Gust Speed Precip Events Conditions
12:00 AM 74 °F - 72 °F 93% 29.87 in - WSW 3.5 mph - -  
12:00 AM 73.4 °F - 71.6 °F 94% 29.92 in - WSW 3.5 mph - N/A   Unknown
1:00 AM 74 °F - 72 °F 94% 29.86 in - WSW 4.6 mph - -  
1:00 AM 73.4 °F - 73.4 °F 100% 29.89 in - WSW 4.6 mph - N/A   Unknown
2:00 AM 73.4 °F - 71.6 °F 94% 29.86 in - SW 3.5 mph - N/A   Mostly Cloudy
3:00 AM 74 °F - 73 °F 94% 29.83 in - SW 4.6 mph - -  
3:00 AM 73.4 °F - 73.4 °F 100% 29.86 in - SW 4.6 mph - N/A   Mostly Cloudy
4:00 AM 74 °F - 72 °F 94% 29.83 in - SSW 3.5 mph - -  
4:00 AM 75.2 °F - 73.4 °F 94% 29.86 in - SSW 3.5 mph - N/A   Overcast
5:00 AM 75.2 °F - 73.4 °F 94% 29.86 in - SSW 4.6 mph - N/A   Overcast
6:00 AM 75 °F - 73 °F 90% 29.85 in - South 4.6 mph - -   Overcast
6:00 AM 75.2 °F - 73.4 °F 94% 29.89 in - South 4.6 mph - N/A   Mostly Cloudy
7:00 AM 78 °F - 74 °F 82% 29.86 in - SSE 6.9 mph - -  
7:00 AM 77.0 °F - 73.4 °F 89% 29.89 in - SSE 6.9 mph - N/A   Overcast
8:00 AM 78.8 °F - 73.4 °F 83% 29.92 in 6.2 mi SE 8.1 mph - N/A   Scattered Clouds
9:00 AM 80 °F - 73 °F 73% 29.90 in - SE 9.2 mph - -  
9:00 AM 80.6 °F 85.4 °F 73.4 °F 79% 29.95 in 6.2 mi SE 9.2 mph - N/A   Mostly Cloudy
10:00 AM 81 °F - 71 °F 66% 29.89 in - ESE 11.5 mph - -  
10:00 AM 80.6 °F 84.6 °F 71.6 °F 74% 29.92 in 6.2 mi ESE 11.5 mph - N/A   Scattered Clouds
11:01 AM 77.0 °F - 71.6 °F 83% 29.92 in 6.2 mi NE 15.0 mph - N/A   Mostly Cloudy
12:00 PM 77 °F - 73 °F 83% 29.87 in - East 10.4 mph - -  
12:00 PM 77.0 °F - 73.4 °F 89% 29.89 in 6.2 mi East 10.4 mph - N/A   Light Drizzle
1:00 PM 80 °F - 73 °F 73% 29.84 in - East 9.2 mph - -  
1:00 PM 80.6 °F 85.4 °F 73.4 °F 79% 29.89 in - East 9.2 mph - N/A   Mostly Cloudy
2:00 PM 80.6 °F 85.4 °F 73.4 °F 79% 29.86 in - East 10.4 mph - N/A   Mostly Cloudy
2:10 PM 80.6 °F 84.6 °F 71.6 °F 74% 29.86 in - ENE 10.4 mph - N/A   Mostly Cloudy
2:51 PM 80.6 °F 84.6 °F 71.6 °F 74% 29.86 in 6.2 mi NE 9.2 mph - N/A   Scattered Clouds
3:00 PM 80 °F - 72 °F 71% 29.81 in - ENE 9.2 mph - -  
3:00 PM 80.6 °F 84.6 °F 71.6 °F 74% 29.86 in 6.2 mi ENE 9.2 mph - N/A   Mostly Cloudy
4:00 PM 80 °F - 72 °F 70% 29.81 in - East 9.2 mph - -  
4:00 PM 80.6 °F 84.6 °F 71.6 °F 74% 29.86 in 6.2 mi East 9.2 mph - N/A   Mostly Cloudy
5:00 PM 77.0 °F - 73.4 °F 89% 29.86 in 6.2 mi East 11.5 mph - N/A   Overcast
5:39 PM 75.2 °F - 71.6 °F 89% 29.86 in - ENE 9.2 mph - N/A   Mostly Cloudy
6:00 PM 75 °F - 72 °F 87% 29.83 in - NE 8.1 mph - -  
6:00 PM 75.2 °F - 71.6 °F 89% 29.86 in - NE 8.1 mph - N/A   Mostly Cloudy
7:00 PM 75 °F - 72 °F 87% 29.86 in - NNE 5.8 mph - -  
7:00 PM 75.2 °F - 71.6 °F 89% 29.89 in - NNE 5.8 mph - N/A   Mostly Cloudy
8:00 PM 75.2 °F - 71.6 °F 89% 29.92 in - North 1.2 mph - N/A   Unknown
9:00 PM 73 °F - 72 °F 94% 29.88 in - Calm Calm - -  
9:00 PM 73.4 °F - 71.6 °F 94% 29.92 in - Calm Calm - N/A   Scattered Clouds
10:00 PM 73 °F - 71 °F 93% 29.89 in - Calm Calm - -  
10:00 PM 73.4 °F - 71.6 °F 94% 29.92 in - Calm Calm - N/A   Unknown
11:00 PM 73.4 °F - 71.6 °F 94% 29.92 in - Calm Calm - N/A   Unknown